Wind_Speed
22 22 22 22 21 21 21 21 19 19 20 20 19 18 18 18 18 17 18 18 19 19 19 19 20 20 20 21 22 22 23 23 23 24 24 23 23 22 22 23 23 22 22 22
24 23 23 24 23 23 23 23 22 21 22 21 20 19 19 19 19 18 18 19 20 21 21 21 21 22 22 22 23 24 24 23 24 23 23 24 24 24 24 25 25 25 25 24
24 24 24 25 24 24 24 23 23 22 23 22 21 21 21 21 21 20 20 21 23 23 23 24 23 23 24 24 25 26 26 26 25 25 25 25 25 25 25 26 25 25 25 24
25 25 26 25 24 24 25 24 24 23 24 24 24 23 23 23 23 23 23 23 24 25 25 26 26 26 26 26 27 27 28 28 28 27 27 28 28 28 28 28 27 27 27 27
26 26 27 27 25 25 25 25 25 25 25 26 26 26 26 26 26 26 25 25 25 26 27 28 28 28 28 29 29 29 30 30 30 30 30 30 30 30 30 29 29 29 29 29
26 26 27 27 26 26 27 27 27 27 28 28 27 28 29 28 28 28 27 27 28 28 28 29 29 30 30 30 31 31 31 31 32 32 32 32 32 31 31 31 31 31 31 30
26 26 26 27 26 26 28 28 28 29 29 29 29 29 30 30 30 29 29 30 30 30 30 29 30 30 31 32 32 32 32 33 33 33 33 33 33 32 32 32 32 32 32 32
26 26 27 26 26 28 28 27 28 28 29 30 30 30 30 30 31 31 31 31 31 30 31 31 31 32 32 32 33 33 33 33 33 33 33 33 33 34 34 34 33 32 33 33
27 28 27 26 27 27 28 28 29 30 30 30 30 30 31 31 32 32 32 32 32 32 32 33 33 33 33 32 32 33 33 33 33 33 33 32 33 34 34 33 33 33 34 34
26 27 27 28 28 29 29 30 30 31 31 31 31 31 31 32 32 32 32 32 32 32 33 33 33 33 33 33 33 33 32 32 32 32 33 32 31 32 33 33 33 34 34 34
26 26 27 27 29 30 30 30 30 30 30 31 31 32 32 32 32 33 33 34 33 34 34 35 34 34 35 34 34 34 33 33 33 33 33 33 33 32 33 34 34 34 35 35
25 26 27 27 28 28 29 30 30 30 30 30 31 31 32 33 34 34 33 34 34 35 35 35 35 35 35 35 35 34 34 33 34 34 33 33 33 34 34 34 34 34 34 34
26 26 27 27 27 28 29 29 30 30 30 31 31 32 32 33 34 34 34 34 35 36 36 36 36 35 35 35 35 35 34 34 34 34 34 34 34 34 34 33 32 32 33 33
26 26 27 27 27 27 28 28 29 29 30 31 32 32 33 33 34 34 35 35 35 35 35 35 35 34 34 34 34 34 34 34 34 34 33 33 33 33 32 31 32 32 31 30
26 26 26 26 27 27 27 28 28 29 30 30 31 31 32 32 32 33 33 34 35 34 34 33 33 33 33 33 33 33 33 33 33 32 32 32 33 33 32 32 32 31 29 29
25 26 26 26 26 26 27 28 29 29 29 29 29 29 30 31 31 32 32 32 33 33 33 32 32 33 33 32 33 32 33 33 32 32 31 31 32 32 31 31 32 31 30 29
24 24 25 25 26 26 27 28 28 28 28 28 29 29 29 30 30 30 30 31 31 32 32 32 32 33 33 33 32 32 32 32 32 32 31 31 31 31 31 30 30 30 30 29
23 23 24 25 25 25 26 26 26 26 26 27 27 27 28 28 29 30 30 30 30 31 31 31 32 32 33 33 33 33 33 32 32 32 32 32 31 31 31 30 29 29 28 27
22 22 22 22 23 24 24 25 25 25 26 25 25 26 26 27 28 28 29 29 30 30 30 30 30 31 32 33 33 32 32 32 31 31 32 31 31 31 31 30 29 28 28 28
20 20 21 21 21 21 21 21 22 22 22 23 23 23 24 25 27 27 27 28 29 29 29 29 29 29 29 29 29 30 31 31 31 31 31 31 30 30 30 29 28 28 28 28
20 20 20 20 20 20 20 20 20 21 21 22 22 23 23 24 25 26 26 26 27 27 28 28 28 28 28 28 28 29 29 30 31 30 30 29 29 29 29 29 28 28 28 28
19 19 18 18 19 19 19 19 20 21 21 22 21 21 22 23 23 23 24 25 25 26 26 26 27 27 27 28 28 28 28 29 29 29 29 29 28 28 28 28 27 27 27 27
18 18 18 18 19 19 19 19 20 21 22 21 21 21 22 22 22 23 23 24 24 24 25 25 25 26 26 27 27 28 28 28 28 28 28 28 27 27 27 27 27 27 26 26
18 18 18 18 18 18 19 19 20 21 21 21 21 21 22 22 22 22 23 23 24 24 24 24 25 25 25 25 26 26 27 27 26 26 26 26 26 26 26 27 27 27 26 26
18 17 17 17 17 18 19 19 20 20 20 20 20 20 20 21 21 21 22 22 23 23 23 24 24 23 23 23 24 24 24 24 24 23 24 24 24 24 24 25 25 26 27 27
17 17 17 17 18 18 18 19 19 19 19 19 20 20 19 20 20 20 21 21 21 22 22 22 22 22 22 22 22 22 22 22 21 21 21 22 22 22 23 24 24 24 25 25
16 17 17 17 18 18 18 18 18 18 18 19 19 19 19 19 19 19 19 19 20 20 20 21 21 21 20 20 19 19 19 19 19 19 20 20 21 21 22 22 22 22 23 23
Wind_Direction
240 243 246 248 248 248 249 250 251 252 254 254 254 256 257 257 256 257 261 263 264 266 269 272 273 273 273 273 274 275 277 278 279 279 279 280 280 279 280 281 282 283 283 284
244 245 247 249 248 250 251 250 250 253 255 254 254 256 256 256 257 258 261 262 264 267 270 272 274 274 275 275 274 274 275 276 277 278 278 278 277 277 278 280 281 281 282 282
247 248 249 251 250 250 250 251 252 254 255 255 257 259 260 260 259 261 263 265 266 267 268 269 272 274 276 277 276 275 274 275 276 276 278 278 278 278 278 279 280 280 281 281
247 250 250 251 249 249 251 252 251 251 255 257 258 260 262 263 262 263 264 266 268 268 268 269 270 273 275 276 277 277 276 275 275 275 276 277 277 278 278 278 278 279 280 280
248 251 253 252 250 250 250 251 251 253 255 257 259 262 262 262 262 263 264 265 269 270 271 270 271 272 274 277 278 278 278 277 275 274 275 275 276 277 278 278 278 278 279 279
249 250 251 253 251 252 252 252 251 253 257 260 261 263 263 263 263 264 266 266 268 270 271 271 272 272 274 276 277 277 278 278 278 276 274 274 275 277 277 277 277 277 277 278
249 250 252 253 253 252 252 254 254 256 260 261 261 262 263 264 264 265 267 268 270 271 271 272 273 274 275 276 276 277 277 277 278 278 278 277 276 277 278 277 276 276 277 277
247 250 253 255 255 253 254 257 259 260 261 262 263 263 263 263 265 265 267 268 271 272 272 272 274 275 275 276 276 276 277 277 278 277 277 278 277 278 279 279 277 277 277 277
249 250 254 256 257 258 259 262 262 262 262 263 263 264 264 264 265 265 265 265 267 270 271 272 273 274 275 275 276 277 277 277 277 277 276 277 279 279 280 278 277 278 279 279
253 252 254 257 259 261 262 264 265 265 265 264 264 264 264 264 264 264 264 265 267 269 271 271 272 274 274 276 277 278 277 277 278 277 277 278 279 278 279 279 279 280 281 280
254 255 257 259 260 262 264 266 267 265 265 265 266 266 266 265 265 267 267 267 268 271 272 271 271 273 273 275 276 276 277 278 279 279 279 279 279 279 279 280 280 280 280 281
257 258 259 260 262 264 265 266 267 267 267 266 267 268 268 267 267 267 268 269 269 271 272 272 271 272 273 274 274 274 275 277 279 279 279 282 282 281 281 280 279 279 280 280
259 260 261 263 264 266 265 265 266 267 267 268 270 271 271 269 268 268 269 270 270 271 272 272 272 272 273 273 273 273 273 275 277 279 280 281 282 282 282 282 283 282 281 282
259 261 262 263 265 266 266 266 267 268 269 270 270 270 270 270 269 270 271 272 271 272 272 272 271 271 272 272 272 273 273 274 276 278 280 281 282 282 282 282 283 284 283 284
259 261 262 264 264 265 267 267 268 270 271 271 271 271 270 269 271 273 274 273 272 273 272 271 270 271 272 272 272 273 273 273 275 277 279 280 281 280 280 281 283 282 282 284
258 260 261 263 265 267 268 269 269 270 271 272 272 272 272 272 273 274 275 275 274 272 271 270 270 270 271 271 271 272 273 273 274 276 278 279 280 281 281 281 281 281 281 283
260 261 262 264 267 269 272 273 273 273 272 272 272 273 274 273 273 274 275 275 274 273 271 271 270 270 270 270 270 272 273 274 274 275 277 279 281 282 281 281 282 282 282 282
262 264 266 268 269 272 274 276 275 275 274 273 272 272 273 274 274 275 275 277 275 273 272 272 272 271 270 270 272 272 273 273 273 274 277 277 279 280 282 283 283 283 283 283
261 264 267 269 271 274 277 276 276 276 276 276 276 275 274 273 274 275 276 277 278 276 274 273 273 273 273 273 272 272 273 273 274 275 276 277 278 280 281 281 281 281 281 282
263 265 267 270 272 275 277 278 279 280 280 280 279 278 275 275 275 276 277 278 279 277 275 273 273 274 275 276 275 274 273 273 274 275 276 276 277 278 277 277 277 278 280 281
262 265 268 271 273 276 278 279 280 282 282 283 282 279 279 279 280 281 280 280 279 277 276 276 277 278 277 276 276 276 275 274 275 275 275 275 275 275 274 273 275 278 279 279
262 264 267 271 274 277 279 280 282 284 284 284 285 285 284 283 283 283 282 283 282 281 279 278 278 278 279 278 277 276 277 277 276 274 273 272 272 273 273 274 275 276 278 278
262 264 268 271 275 278 282 284 286 288 289 288 287 287 287 286 285 285 285 286 285 284 283 282 281 280 279 279 278 277 277 277 276 275 273 271 270 271 273 274 275 276 278 279
261 265 270 273 276 279 283 286 288 289 289 290 289 288 287 287 287 287 287 288 288 286 285 285 284 283 282 281 279 279 279 277 276 275 273 273 271 270 272 273 274 275 277 279
265 268 271 273 276 280 285 289 290 290 289 290 291 291 291 290 290 290 290 290 290 289 288 287 287 286 284 282 282 281 282 280 277 275 274 273 273 274 274 275 275 276 277 278
267 270 273 276 279 282 285 288 291 291 289 288 290 294 294 294 292 291 290 291 292 292 291 290 287 287 286 284 283 282 281 281 279 277 277 277 276 277 277 276 277 277 278 278
266 269 272 275 279 283 286 289 292 293 294 294 294 295 296 296 295 294 292 292 293 294 294 293 289 287 287 287 287 285 282 279 279 279 279 280 281 282 281 279 279 279 281 281
Height
5867 5869 5870 5872 5873 5875 5876 5878 5880 5881 5880 5880 5881 5881 5881 5881 5881 5881 5881 5881 5881 5881 5880 5880 5879 5878 5878 5877 5877 5876 5875 5875 5873 5872 5871 5870 5868 5867 5866 5865 5864 5863 5861 5859
5860 5862 5864 5865 5867 5869 5870 5871 5873 5874 5874 5874 5875 5875 5875 5875 5876 5876 5876 5876 5876 5875 5875 5875 5874 5873 5872 5872 5871 5870 5869 5868 5867 5866 5865 5864 5862 5861 5860 5859 5858 5856 5855 5853
5854 5856 5857 5859 5861 5862 5864 5865 5867 5868 5868 5868 5869 5869 5869 5869 5870 5870 5870 5870 5870 5870 5869 5869 5868 5867 5866 5866 5865 5864 5863 5862 5860 5859 5858 5857 5856 5855 5853 5852 5851 5849 5848 5846
5848 5850 5851 5854 5854 5856 5857 5858 5860 5860 5861 5862 5862 5862 5863 5863 5863 5863 5863 5863 5863 5863 5862 5862 5861 5860 5860 5859 5858 5857 5855 5854 5853 5852 5851 5850 5849 5847 5846 5845 5843 5842 5840 5839
5842 5843 5844 5846 5848 5849 5850 5851 5853 5853 5854 5854 5855 5855 5855 5856 5856 5856 5856 5856 5856 5855 5854 5854 5853 5853 5852 5851 5850 5849 5847 5846 5845 5844 5843 5841 5840 5839 5838 5836 5835 5834 5832 5831
5834 5836 5838 5839 5840 5841 5843 5843 5845 5845 5846 5847 5847 5848 5848 5848 5848 5848 5848 5848 5847 5847 5846 5846 5845 5844 5844 5843 5842 5840 5839 5837 5836 5834 5833 5832 5831 5830 5828 5827 5826 5825 5823 5822
5826 5828 5830 5830 5832 5834 5837 5837 5837 5838 5838 5839 5839 5840 5840 5840 5840 5840 5840 5839 5839 5838 5838 5837 5836 5836 5835 5834 5832 5831 5829 5828 5826 5824 5823 5822 5821 5819 5818 5817 5816 5815 5814 5813
5819 5821 5823 5822 5824 5826 5827 5828 5828 5829 5829 5830 5830 5831 5831 5831 5831 5831 5831 5830 5830 5829 5829 5828 5828 5827 5826 5825 5823 5821 5820 5819 5817 5815 5814 5812 5811 5810 5809 5807 5806 5805 5804 5803
5812 5814 5814 5815 5816 5817 5818 5819 5820 5820 5821 5821 5821 5821 5822 5822 5822 5822 5821 5821 5821 5820 5819 5819 5818 5817 5816 5815 5814 5812 5810 5809 5807 5806 5804 5803 5801 5800 5799 5797 5796 5795 5794 5792
5804 5804 5806 5807 5807 5809 5810 5810 5811 5811 5811 5812 5812 5812 5812 5812 5812 5812 5812 5811 5811 5810 5810 5809 5808 5807 5806 5805 5804 5803 5801 5799 5797 5796 5795 5793 5792 5791 5789 5788 5786 5785 5783 5782
5796 5797 5798 5798 5799 5800 5800 5801 5801 5801 5802 5802 5802 5802 5802 5803 5803 5803 5802 5802 5801 5801 5800 5799 5798 5797 5796 5795 5794 5793 5792 5790 5788 5787 5786 5784 5783 5781 5780 5778 5776 5775 5773 5771
5788 5789 5790 5791 5791 5791 5792 5792 5792 5793 5793 5793 5793 5792 5792 5792 5792 5792 5792 5791 5791 5790 5790 5789 5788 5787 5786 5785 5784 5783 5782 5780 5779 5777 5776 5774 5773 5771 5769 5767 5766 5764 5763 5761
5780 5781 5782 5782 5783 5783 5783 5783 5783 5783 5783 5783 5783 5782 5782 5782 5782 5781 5781 5780 5780 5780 5779 5778 5777 5776 5776 5774 5773 5772 5771 5770 5769 5767 5766 5764 5762 5761 5759 5758 5755 5754 5753 5751
5772 5773 5774 5774 5774 5774 5774 5774 5774 5774 5773 5773 5773 5772 5772 5771 5771 5770 5770 5770 5769 5768 5768 5767 5767 5766 5765 5764 5763 5761 5761 5760 5759 5757 5756 5755 5752 5751 5749 5748 5746 5744 5743 5741
5764 5765 5766 5766 5766 5765 5765 5765 5765 5764 5764 5763 5762 5762 5761 5761 5760 5760 5759 5758 5757 5757 5757 5756 5756 5755 5754 5753 5752 5751 5750 5749 5748 5747 5746 5745 5743 5741 5740 5738 5737 5735 5734 5732
5756 5756 5757 5757 5757 5756 5756 5756 5755 5755 5754 5753 5752 5752 5751 5750 5750 5749 5748 5747 5746 5746 5745 5745 5745 5744 5743 5742 5741 5741 5740 5739 5738 5737 5736 5735 5734 5732 5731 5729 5728 5727 5725 5723
5748 5749 5749 5749 5749 5748 5747 5746 5746 5745 5744 5744 5743 5742 5741 5740 5740 5739 5738 5737 5735 5734 5734 5734 5733 5733 5732 5732 5731 5730 5730 5729 5728 5727 5726 5725 5724 5723 5722 5720 5719 5717 5716 5714
5741 5741 5741 5741 5741 5740 5739 5738 5737 5736 5735 5734 5733 5732 5731 5731 5730 5729 5728 5726 5725 5724 5723 5723 5722 5722 5721 5721 5720 5720 5719 5718 5718 5717 5716 5716 5715 5714 5712 5711 5710 5708 5707 5705
5733 5733 5733 5733 5732 5732 5731 5730 5729 5727 5726 5725 5724 5723 5722 5721 5720 5719 5717 5716 5715 5714 5713 5712 5711 5710 5710 5710 5709 5709 5708 5708 5707 5707 5706 5706 5705 5704 5703 5702 5701 5699 5698 5697
5726 5726 5726 5725 5725 5724 5723 5722 5721 5719 5718 5717 5716 5714 5713 5712 5710 5709 5708 5706 5705 5704 5703 5702 5701 5700 5699 5699 5698 5698 5698 5697 5697 5696 5696 5696 5695 5694 5693 5693 5692 5691 5689 5688
5719 5719 5719 5718 5718 5717 5716 5715 5714 5712 5711 5709 5708 5706 5705 5703 5701 5700 5698 5697 5696 5694 5693 5692 5691 5690 5689 5689 5688 5688 5687 5687 5687 5686 5686 5686 5685 5685 5684 5683 5683 5682 5680 5679
5712 5712 5712 5712 5711 5711 5710 5708 5707 5705 5704 5702 5700 5698 5696 5695 5693 5691 5690 5688 5687 5685 5683 5682 5681 5680 5679 5679 5678 5678 5678 5677 5676 5676 5676 5676 5676 5675 5675 5674 5674 5673 5672 5671
5705 5706 5705 5705 5705 5704 5703 5702 5700 5698 5696 5694 5693 5691 5689 5688 5686 5684 5682 5681 5678 5677 5675 5674 5672 5671 5670 5669 5669 5668 5668 5667 5666 5666 5666 5666 5666 5666 5666 5666 5665 5664 5664 5663
5699 5699 5699 5699 5698 5697 5696 5695 5693 5691 5690 5688 5686 5684 5682 5680 5678 5677 5675 5673 5671 5669 5667 5666 5664 5663 5662 5661 5660 5659 5658 5657 5656 5656 5656 5656 5656 5657 5657 5657 5656 5656 5655 5654
5693 5693 5693 5693 5692 5691 5690 5688 5687 5685 5683 5681 5679 5677 5676 5673 5672 5670 5668 5666 5664 5662 5660 5658 5656 5655 5653 5652 5651 5650 5649 5648 5648 5647 5647 5648 5648 5648 5648 5648 5648 5647 5646 5645
5688 5688 5688 5687 5686 5685 5684 5682 5681 5679 5677 5675 5673 5671 5669 5667 5665 5663 5661 5659 5658 5655 5653 5651 5649 5648 5646 5645 5644 5643 5642 5641 5640 5640 5640 5640 5640 5640 5640 5640 5639 5638 5637 5636
5683 5682 5682 5681 5681 5679 5678 5677 5675 5673 5671 5670 5668 5666 5664 5662 5659 5657 5655 5653 5651 5649 5647 5645 5643 5641 5640 5639 5638 5636 5635 5635 5634 5634 5634 5634 5633 5633 5632 5632 5631 5630 5629 5628